User: anonymous   Login
Location: Unspecified
(0.0000°N, 0.0000°E)
Time: 01:23:46
(UTC+00:00)
Language:

Courier 1B Rocket - Orbit

View from above orbital plane
View from above orbital plane
View from above satellite
View from above satellite

Ground track
Ground track

The orbit data is extracted from the following two-line orbital elements,

1 00059U 60013B   15213.85444646  .00000099  00000-0  16865-4 0  9995
2 00059 028.2492 009.5650 0189186 093.2129 269.0078 13.52924686705669
Epoch (UTC): 01 August 2015 20:30:24
Eccentricity: 0.0189186
inclination: 28.2492°
perigee height: 921 km
apogee height: 1202 km
right ascension of ascending node: 9.5650°
argument of perigee: 93.2129°
revolutions per day: 13.52924686
mean anomaly at epoch: 269.0078°
orbit number at epoch: 70566

The dashed part of the orbit path shows where the satellite is in the earth's shadow,  

DLR